Gilze-Rijen, Netherlands

9:07 AM CEST on September 20, 2017 (GMT +0200)
Gilze-Rijen Air Base

Weather History for EHGR - October, 2012

Change the Weather History Date:

Saturday, October 20, 2012

  Actual Average Record
Temperature  
Mean Temperature 60 °F -  
Max Temperature 62 °F 50 °F 69 °F (2001)
Min Temperature 57 °F 39 °F 32 °F (2007)
Degree Days  
Heating Degree Days 6    
Growing Degree Days 10 (Base 50)    
Moisture  
Dew Point 56 °F    
Average Humidity 87    
Maximum Humidity 100    
Minimum Humidity 77    
Precipitation  
Precipitation 0.00 in - - ()
Sea Level Pressure  
Sea Level Pressure 30.00 in    
Wind  
Wind Speed 5 mph ()    
Max Wind Speed 10 mph    
Max Gust Speed -    
Visibility 5.8 miles    
Events Rain    
Averages and records for this station are not official NWS values.
T = Trace of Precipitation, MM = Missing Value Source: Averaged Metar Reports

Daily Weather History Graph

Daily Weather History Graph

Search for Another Location

Airport or City:

Trip Planner

Search our weather history database for the weather conditions in past years. The results will help you decide how hot, cold, wet, or windy it might be!

Date:

Astronomy

Oct. 20, 2012 Rise Set
Actual Time 8:13 AM CEST 6:35 PM CEST
Civil Twilight 7:39 AM CEST 7:09 PM CEST
Nautical Twilight 7:00 AM CEST 7:48 PM CEST
Astronomical Twilight 6:21 AM CEST 8:27 PM CEST
Moon 1:58 PM CEST 10:42 PM CEST
Length of Visible Light 11h 30m
Length of Day
10h 22m
Waxing Crescent, 31% of the Moon is Illuminated
Oct 20
Waxing Crescent
Oct 22
First Quarter
Oct 29
Full
Nov 7
Last Quarter
Nov 13
New

Hourly Weather History & Observations

Time (CEST) Temp. Dew Point Humidity Pressure Visibility Wind Dir Wind Speed Gust Speed Precip Events Conditions
12:25 AM 62.6 °F 55.4 °F 77% 29.86 in 6.2 mi SSE 8.1 mph - N/A   Light Drizzle
12:55 AM 62.6 °F 55.4 °F 77% 29.86 in 6.2 mi SSE 5.8 mph - N/A   Overcast
1:25 AM 62.6 °F 55.4 °F 77% 29.86 in 6.2 mi SSE 4.6 mph - N/A   Overcast
1:55 AM 62.6 °F 55.4 °F 77% 29.86 in 6.2 mi SSE 6.9 mph - N/A Rain Light Rain
2:25 AM 62.6 °F 55.4 °F 77% 29.86 in 6.2 mi South 5.8 mph - N/A   Overcast
2:55 AM 60.8 °F 55.4 °F 82% 29.86 in 6.2 mi SSW 2.3 mph - N/A   Overcast
3:25 AM 60.8 °F 55.4 °F 82% 29.86 in 6.2 mi SSW 3.5 mph - N/A   Overcast
3:55 AM 59.0 °F 55.4 °F 88% 29.89 in 6.2 mi SSW 4.6 mph - N/A   Overcast
4:25 AM 59.0 °F 55.4 °F 88% 29.89 in 6.2 mi SSW 2.3 mph - N/A   Overcast
4:55 AM 59.0 °F 55.4 °F 88% 29.89 in 6.2 mi SSW 3.5 mph - N/A   Overcast
5:08 AM 60.8 °F 57.2 °F 88% 29.89 in 6.2 mi SSW 4.6 mph - N/A Rain Light Rain
5:20 AM 60.8 °F 57.2 °F 88% 29.89 in 6.2 mi SSW 5.8 mph - N/A   Mostly Cloudy
5:25 AM 62.6 °F 57.2 °F 82% 29.89 in 6.2 mi SW 5.8 mph - N/A   Mostly Cloudy
5:55 AM 60.8 °F 57.2 °F 88% 29.89 in 6.2 mi SSW 6.9 mph - N/A   Drizzle
6:25 AM 60.8 °F 57.2 °F 88% 29.92 in 6.2 mi SSW 5.8 mph - N/A Rain Light Rain Showers
6:55 AM 59.0 °F 57.2 °F 94% 29.92 in 6.2 mi SSW 5.8 mph - N/A   Mostly Cloudy
7:03 AM 59.0 °F 59.0 °F 100% 29.92 in 6.2 mi SW 4.6 mph - N/A Rain Light Rain
7:11 AM 59.0 °F 59.0 °F 100% 29.92 in 6.2 mi SW 5.8 mph - N/A   Overcast
7:25 AM 59.0 °F 57.2 °F 94% 29.92 in 5.6 mi South 5.8 mph - N/A   Mostly Cloudy
7:26 AM 59.0 °F 59.0 °F 100% 29.92 in 5.6 mi SSW 5.8 mph - N/A   Mostly Cloudy
7:46 AM 59.0 °F 57.2 °F 94% 29.95 in 5.6 mi South 5.8 mph - N/A   Overcast
7:50 AM 59.0 °F 59.0 °F 100% 29.95 in 5.6 mi SSW 5.8 mph - N/A   Overcast
7:55 AM 59.0 °F 59.0 °F 100% 29.95 in 5.6 mi SW 4.6 mph - N/A   Overcast
8:25 AM 59.0 °F 59.0 °F 100% 29.95 in 4.3 mi SW 3.5 mph - N/A   Overcast
8:55 AM 59.0 °F 59.0 °F 100% 29.98 in 4.3 mi SW 2.3 mph - N/A   Overcast
9:25 AM 60.8 °F 59.0 °F 94% 29.98 in 4.3 mi SSW 4.6 mph - N/A   Overcast
9:34 AM 60.8 °F 59.0 °F 94% 29.98 in 3.7 mi SSW 4.6 mph - N/A   Overcast
9:41 AM 60.8 °F 59.0 °F 94% 30.01 in 3.7 mi SSW 4.6 mph - N/A   Overcast
9:42 AM 60.8 °F 59.0 °F 94% 30.01 in 3.7 mi SSW 4.6 mph - N/A   Overcast
9:55 AM 60.8 °F 59.0 °F 94% 30.01 in 3.7 mi SW 4.6 mph - N/A   Overcast
10:02 AM 60.8 °F 59.0 °F 94% 30.01 in 2.8 mi SW 5.8 mph - N/A   Overcast
10:08 AM 60.8 °F 59.0 °F 94% 30.01 in - WSW 5.8 mph - N/A   Overcast
10:21 AM 60.8 °F 59.0 °F 94% 30.01 in - West 5.8 mph - N/A   Mostly Cloudy
10:25 AM 60.8 °F 59.0 °F 94% 30.01 in 3.7 mi West 4.6 mph - N/A   Mostly Cloudy
10:33 AM 59.0 °F 59.0 °F 100% 30.01 in 4.3 mi West 5.8 mph - N/A   Mostly Cloudy
10:55 AM 59.0 °F 57.2 °F 94% 30.01 in 5.0 mi West 5.8 mph - N/A   Overcast
11:13 AM 60.8 °F 57.2 °F 88% 30.01 in 5.0 mi WSW 4.6 mph - N/A   Overcast
11:17 AM 60.8 °F 57.2 °F 88% 30.04 in 4.3 mi WSW 5.8 mph - N/A   Overcast
11:18 AM 60.8 °F 57.2 °F 88% 30.04 in 5.0 mi West 5.8 mph - N/A   Mostly Cloudy
11:25 AM 60.8 °F 57.2 °F 88% 30.04 in 4.3 mi WSW 6.9 mph - N/A   Overcast
11:44 AM 60.8 °F 57.2 °F 88% 30.04 in 5.6 mi West 6.9 mph - N/A   Overcast
11:55 AM 60.8 °F 57.2 °F 88% 30.04 in 5.6 mi West 5.8 mph - N/A   Overcast
12:25 PM 60.8 °F 55.4 °F 82% 30.04 in 6.2 mi WSW 5.8 mph - N/A   Overcast
12:51 PM 60.8 °F 55.4 °F 82% 30.04 in 6.2 mi WNW 10.4 mph - N/A   Overcast
12:55 PM 60.8 °F 55.4 °F 82% 30.04 in 6.2 mi West 9.2 mph - N/A   Overcast
1:13 PM 62.6 °F 55.4 °F 77% 30.06 in 6.2 mi West 6.9 mph - N/A   Overcast
1:25 PM 62.6 °F 55.4 °F 77% 30.06 in 6.2 mi West 5.8 mph - N/A   Mostly Cloudy
1:29 PM 62.6 °F 55.4 °F 77% 30.06 in 6.2 mi West 6.9 mph - N/A   Mostly Cloudy
1:43 PM 60.8 °F 55.4 °F 82% 30.06 in 6.2 mi WNW 8.1 mph - N/A   Mostly Cloudy
1:55 PM 60.8 °F 55.4 °F 82% 30.06 in 6.2 mi WNW 8.1 mph - N/A   Mostly Cloudy
1:59 PM 60.8 °F 55.4 °F 82% 30.06 in 6.2 mi WNW 8.1 mph - N/A   Overcast
2:18 PM 60.8 °F 55.4 °F 82% 30.06 in 6.2 mi WNW 9.2 mph - N/A   Overcast
2:25 PM 60.8 °F 55.4 °F 82% 30.06 in 6.2 mi WNW 8.1 mph - N/A   Overcast
2:55 PM 60.8 °F 53.6 °F 77% 30.06 in 6.2 mi WNW 8.1 mph - N/A   Overcast
3:25 PM 60.8 °F 55.4 °F 82% 30.06 in 6.2 mi NW 6.9 mph - N/A   Overcast
3:33 PM 60.8 °F 53.6 °F 77% 30.06 in 6.2 mi NW 5.8 mph - N/A   Mostly Cloudy
3:55 PM 60.8 °F 53.6 °F 77% 30.06 in 6.2 mi NW 3.5 mph - N/A   Overcast
4:02 PM 60.8 °F 53.6 °F 77% 30.06 in 6.2 mi NNW 3.5 mph - N/A   Mostly Cloudy
4:14 PM 60.8 °F 53.6 °F 77% 30.04 in 6.2 mi North 3.5 mph - N/A   Overcast
4:21 PM 59.0 °F 55.4 °F 88% 30.04 in 6.2 mi NNE 4.6 mph - N/A   Overcast
4:25 PM 60.8 °F 55.4 °F 82% 30.04 in 6.2 mi NNE 3.5 mph - N/A   Overcast
4:34 PM 59.0 °F 53.6 °F 82% 30.06 in 6.2 mi North 2.3 mph - N/A   Overcast
4:55 PM 60.8 °F 55.4 °F 82% 30.04 in 6.2 mi NNE 3.5 mph - N/A   Overcast
5:25 PM 59.0 °F 55.4 °F 88% 30.04 in 6.2 mi NNE 5.8 mph - N/A   Overcast
5:45 PM 59.0 °F 53.6 °F 82% 30.06 in 6.2 mi North 4.6 mph - N/A   Overcast
5:49 PM 59.0 °F 53.6 °F 82% 30.06 in 6.2 mi North 4.6 mph - N/A   Overcast
5:55 PM 59.0 °F 53.6 °F 82% 30.06 in 6.2 mi NNE 4.6 mph - N/A   Overcast
6:01 PM 59.0 °F 53.6 °F 82% 30.06 in 6.2 mi NNE 4.6 mph - N/A   Overcast
6:25 PM 59.0 °F 53.6 °F 82% 30.06 in 6.2 mi NE 4.6 mph - N/A   Overcast
6:49 PM 59.0 °F 53.6 °F 82% 30.06 in 6.2 mi NNE 4.6 mph - N/A   Overcast
6:55 PM 59.0 °F 53.6 °F 82% 30.06 in 6.2 mi NNE 4.6 mph - N/A   Overcast
7:25 PM 59.0 °F 53.6 °F 82% 30.06 in 6.2 mi North 5.8 mph - N/A   Overcast
7:55 PM 59.0 °F 53.6 °F 82% 30.06 in 6.2 mi North 6.9 mph - N/A   Overcast
8:25 PM 57.2 °F 53.6 °F 88% 30.06 in 6.2 mi North 6.9 mph - N/A   Overcast
8:55 PM 57.2 °F 55.4 °F 94% 30.06 in 6.2 mi NNE 6.9 mph - N/A   Overcast
9:25 PM 57.2 °F 55.4 °F 94% 30.06 in 6.2 mi NNE 8.1 mph - N/A   Overcast
9:55 PM 57.2 °F 55.4 °F 94% 30.06 in 6.2 mi NNE 6.9 mph - N/A   Overcast
10:25 PM 57.2 °F 55.4 °F 94% 30.06 in 6.2 mi NNE 9.2 mph - N/A   Overcast
10:55 PM 57.2 °F 55.4 °F 94% 30.06 in 6.2 mi NNE 8.1 mph - N/A   Overcast
11:25 PM 57.2 °F 55.4 °F 94% 30.04 in 6.2 mi NNE 10.4 mph - N/A   Overcast
11:42 PM 57.2 °F 55.4 °F 94% 30.04 in 6.2 mi NE 8.1 mph - N/A   Overcast
11:50 PM 57.2 °F 55.4 °F 94% 30.04 in 6.2 mi NE 6.9 mph - N/A   Overcast
11:55 PM 57.2 °F 55.4 °F 94% 30.04 in 6.2 mi NE 8.1 mph - N/A   Overcast